Regional Weather Roundup
Issued by NWS Sterling, VA

Home | Current Version | Previous Version | Text Only | Print | Product List | Glossary Off
Versions: 1 2 3 4 5 6 7 8 9 10 11 12 13 14 15 16 17 18 19 20 21 22 23 24 25 26 27 28 29 30 31 32 33 34 35 36 37 38 39 40 41 42 43 44 45 46 47 48 49 50

000
ASUS41 KLWX 311510
RWRLWX

REGIONAL WEATHER ROUNDUP
NATIONAL WEATHER SERVICE BALTIMORE MD/WASHINGTON DC
1100 AM EDT SUN AUG 31 2014

Note: "FAIR" indicates few or no clouds below 12,000 feet
with no significant weather and/or obstructions to visibility.
 TC=TEMPERATURE CELSIUS

 * =Non NWS site. Station does not report precipitation (e.g. rain,
    snow, etc.), thunder, or fog.

DCZ001-MDZ009-015-VAZ040>042-051-053>054-311600-
WASHINGTON METRO

CITY           SKY/WX    TMP DP  RH WIND       PRES   REMARKS
WASHINGTON NAT MOSUNNY   86  72  62 S14       30.08F HX  92
DULLES         PTSUNNY   81  73  76 S9        30.09F
ANDREWS AFB    SUNNY     86  73  65 S10       30.08F HX  92
QUANTICO       SUNNY     82  75  79 S13       30.09F
LEESBURG*      CLOUDY    82  77  83 S7        30.10S HX  91
MANASSAS*      MOSUNNY   82  75  78 S8        30.09F
GAITHERSBURG*  MOSUNNY   84  73  70 SW7       30.12F HX  91

$$

MDZ006>007-011-014-311600-
BALTIMORE METRO

CITY           SKY/WX    TMP DP  RH WIND       PRES   REMARKS
BWI AIRPORT    PTSUNNY   85  72  65 SW6       30.07F HX  91
MD SCIENCE CTR   N/A     85  72  65 MISG      30.07F HX  91
MARTIN STATE   MOSUNNY   84  75  74 S5        30.09F HX  92
ANNAPOLIS      SUNNY     85  73  67 VRB7      30.08F HX  91

$$

MDZ012-015-019>023-311600-
MARYLAND EASTERN SHORE

CITY           SKY/WX    TMP DP  RH WIND       PRES   REMARKS
OCEAN CITY     MOSUNNY   84  74  71 S9        30.13F HX  91
SALISBURY      MOSUNNY   88  72  58 SW12      30.13F HX  94
EASTON*        SUNNY     86  73  66 SW12      30.14F HX  93

$$

MDZ017>025-311600-
SOUTHERN MARYLAND

CITY           SKY/WX    TMP DP  RH WIND       PRES   REMARKS
PATUXENT RIVER MOSUNNY   85  72  65 SW9G16    30.11F HX  91
ST INIGOES     SUNNY     84  72  67 S10       30.11F
LEONARDTOWN*   NOT AVBL

$$

MDZ003>005-311600-
NORTH CENTRAL MARYLAND

CITY           SKY/WX    TMP DP  RH WIND       PRES   REMARKS
FREDERICK*     PTSUNNY   84  75  74 SW5       30.10F HX  92
HAGERSTOWN APT CLOUDY    79  71  76 SW8       30.09S
WESTMINSTER*   MOSUNNY   82  73  74 S7        30.09F

$$

MDZ501>502-311600-
WESTERN MARYLAND

CITY           SKY/WX    TMP DP  RH WIND       PRES   REMARKS
OAKLAND*       NOT AVBL
CUMBERLAND*    NOT AVBL

$$

VAZ025>031-311600-
SHENANDOAH VALLEY

CITY           SKY/WX    TMP DP  RH WIND       PRES   REMARKS
WINCHESTER*    CLOUDY    79  70  73 SW5       30.10S
STAUNTON*      MOSUNNY   84  66  54 SW8       30.13F

$$

WVZ021-048>050-054>055-311600-
EASTERN WEST VIRGINIA PANHANDLE

CITY           SKY/WX    TMP DP  RH WIND       PRES   REMARKS
MARTINSBURG    CLOUDY    82  70  66 SW7       30.09S
PETERSBURG*    NOT AVBL

$$

VAZ036>039-050-311600-
CENTRAL FOOTHILLS

CITY           SKY/WX    TMP DP  RH WIND       PRES   REMARKS
CHARLOTTESVILL SUNNY     81  73  76 S9        30.10F
ORANGE*        MOSUNNY   82  72  69 S13       30.11F

$$

VAZ055>057-311600-
NORTH AND CENTRAL PIEDMONT

CITY           SKY/WX    TMP DP  RH WIND       PRES   REMARKS
FREDERICKSBRG* SUNNY     86  73  64 SW8       30.09F HX  93
STAFFORD*      MOSUNNY   84  73  70 S10       30.13F HX  90

$$

NCZ024-NYZ072-PAZ021-071-VAZ022-071-311600-
OTHER REGIONAL OBSERVATIONS

CITY           SKY/WX    TMP DP  RH WIND       PRES   REMARKS
NEW YORK CITY  MOSUNNY   79  70  74 VRB3      30.11F
PHILADELPHIA   PTSUNNY   84  73  69 SW10      30.08F HX  90
PITTSBURGH     LGT RAIN  71  69  93 S7        30.08S FOG
ROANOKE        PTSUNNY   81  69  67 VRB5      30.16F
RICHMOND       PTSUNNY   86  71  60 SW12      30.13F HX  91
RALEIGH        PTSUNNY   83  72  69 SW9       30.16F

$$

ANZ530>537-311600-
MARINE OBSERVATIONS

STATION/POSITION TIME  TEMP    WIND        PRES
                       AIR SEA DIR/SP/G
                 (UTC) (F)     (DEG/KT/KT) (MB)
THOMAS PT LIGHT  1500   78 78  170/ 13/ 14 1019.8F
BALT KEY BRIDGE  1500          190/  7/  9 1018.5F
COVE POINT       1500   82     210/ 14/ 15 1019.3F
LEWISETTA        1500   83 79  230/ 10/ 13 1019.4F
SOLOMONS ISLAND  1500      79                N/A
PINEY POINT      1500          210/  6/  7   N/A

$$




USA.gov is the U.S. government's official web portal to all federal, state and local government web resources and services.